Location: Marsån
(66.4167°N, 22.2833°E)
Time: 08:46:18
(UTC+00:00)

CZ-4B R/B - Pass Details

Date: 24 February 2024
Orbit: 808 x 881 km, 99.0° (Epoch: 20 April)

Event Time Altitude Azimuth Distance (km) Brightness Sun altitude
Rises 18:02:26 0° 175° (S) 3,372 6.1 -16.4°
Reaches altitude 10° 18:04:49 10° 180° (S) 2,452 5.5 -16.7°
Maximum altitude 18:10:09 54° 257° (WSW) 1,031 4.0 -17.2°
Drops below altitude 10° 18:15:37 10° 335° (NNW) 2,514 6.2 -17.7°
Sets 18:18:06 0° 340° (NNW) 3,465 7.0 -17.9°
